TimeMST,TemperatureF,Dew PointF,Humidity,Sea Level PressureIn,VisibilityMPH,Wind Direction,Wind SpeedMPH,Gust SpeedMPH,PrecipitationIn,Events,Conditions,WindDirDegrees,DateUTC
12:53 AM,15.1,9.0,77,30.32,10.0,NNE,10.4,-,N/A,,Clear,20,2013-12-27 07:53:00
1:53 AM,15.1,9.0,77,30.32,10.0,NE,11.5,-,N/A,,Clear,40,2013-12-27 08:53:00
2:53 AM,16.0,10.0,77,30.34,10.0,NE,8.1,-,N/A,,Clear,40,2013-12-27 09:53:00
3:53 AM,16.0,10.0,77,30.36,10.0,NE,9.2,-,N/A,,Clear,50,2013-12-27 10:53:00
4:53 AM,17.1,10.9,77,30.37,10.0,NE,9.2,-,N/A,,Clear,50,2013-12-27 11:53:00
5:53 AM,17.1,10.9,77,30.40,10.0,NE,9.2,-,N/A,,Clear,50,2013-12-27 12:53:00
6:53 AM,17.1,10.0,74,30.42,10.0,NE,9.2,-,N/A,,Clear,50,2013-12-27 13:53:00
7:53 AM,17.1,10.0,74,30.45,10.0,NE,10.4,-,N/A,,Clear,50,2013-12-27 14:53:00
8:53 AM,24.1,10.9,57,30.42,10.0,NNE,6.9,-,N/A,,Clear,30,2013-12-27 15:53:00
9:53 AM,28.9,12.9,51,30.39,10.0,North,5.8,-,N/A,,Clear,350,2013-12-27 16:53:00
10:53 AM,34.0,16.0,48,30.33,10.0,North,10.4,-,N/A,,Clear,350,2013-12-27 17:53:00
11:53 AM,37.0,16.0,42,30.27,10.0,NNW,13.8,19.6,N/A,,Clear,340,2013-12-27 18:53:00
12:53 PM,37.9,16.0,41,30.23,10.0,NNW,10.4,-,N/A,,Clear,340,2013-12-27 19:53:00
1:53 PM,39.0,16.0,39,30.21,10.0,NW,10.4,-,N/A,,Clear,320,2013-12-27 20:53:00
2:53 PM,39.0,15.1,38,30.19,10.0,NW,6.9,-,N/A,,Clear,320,2013-12-27 21:53:00
3:53 PM,37.9,16.0,41,30.19,10.0,NNW,8.1,-,N/A,,Clear,330,2013-12-27 22:53:00
4:53 PM,28.9,15.1,56,30.24,10.0,North,9.2,-,N/A,,Clear,360,2013-12-27 23:53:00
5:53 PM,26.1,14.0,60,30.25,10.0,NNE,8.1,-,N/A,,Clear,20,2013-12-28 00:53:00
6:53 PM,24.1,14.0,65,30.27,10.0,North,9.2,-,N/A,,Clear,10,2013-12-28 01:53:00
7:53 PM,21.9,12.9,68,30.27,10.0,NNE,6.9,-,N/A,,Clear,30,2013-12-28 02:53:00
8:53 PM,19.0,12.0,74,30.23,10.0,NE,5.8,-,N/A,,Clear,50,2013-12-28 03:53:00
9:53 PM,15.1,10.0,80,30.21,10.0,North,4.6,-,N/A,,Clear,10,2013-12-28 04:53:00
10:53 PM,16.0,10.9,81,30.15,10.0,NNE,6.9,-,N/A,,Clear,30,2013-12-28 05:53:00
11:53 PM,12.9,9.0,84,30.13,10.0,North,4.6,-,N/A,,Clear,360,2013-12-28 06:53:00